Retour au catalogue

STARLINK-2446

ActifCommunicationsVLEO
NORAD 47844·PAYLOAD·🇺🇸 United States

Lancé Mar 11, 2021 depuis Cape Canaveral Space Force Station

Loading…

Prochains Passages (prochaines 24 heures)

TLE

FraisSource: CelesTrak SupGP

Époque: Sep 15, 2026, 01:38 UTC

1 47844C 21018BK  26258.06854167  .00035137  00000+0  89674-3 0  2582
2 47844  53.1553  82.1202 0004285 130.3063 203.6657 15.38902493    15

Suivez STARLINK-2446 en temps réel avec AllMySat

Download on the App Store